When you browse on this site, cookies collect data to enhance your experience and personalize the content and advertising you see.
Visit our Privacy Policy to learn more. By continuing to use the site, you agree to this use of cookies and data.
  • In Hungary
  • List of Countries
  • For 7 days
  • Water Temperature
  • Satellite Maps
  • Weather Map
  • News
  • Weather Widgets
  • user-avatar
    Login

    Hourly Weather Bailesti

    Today, 23 March, Saturday

    Time Temperature Precipitation Wind Pressure Humidity
    00:00 +12°C° 0 mm 1 mps 765 mmHg 51%
    01:00 +11°C° 0 mm 1 mps 764 mmHg 54%
    02:00 +11°C° 0 mm 1 mps 764 mmHg 54%
    03:00 +10°C° 0 mm 1 mps 764 mmHg 56%
    04:00 +10°C° 0 mm 1 mps 764 mmHg 59%
    05:00 +10°C° 0 mm 1 mps 764 mmHg 61%
    06:00 +10°C° 0 mm 1 mps 764 mmHg 60%
    07:00 +11°C° 0 mm 1 mps 764 mmHg 60%
    08:00 +11°C° 0 mm 1 mps 764 mmHg 60%
    09:00 +13°C° 0 mm 1 mps 764 mmHg 56%
    10:00 +14°C° 0 mm 2 mps 763 mmHg 52%
    11:00 +16°C° 0 mm 2 mps 763 mmHg 48%
    12:00 +17°C° 0 mm 2 mps 763 mmHg 45%
    13:00 +18°C° 0 mm 2 mps 762 mmHg 42%
    14:00 +19°C° 0 mm 3 mps 762 mmHg 38%
    15:00 +20°C° 0 mm 2 mps 761 mmHg 38%
    16:00 +20°C° 0 mm 2 mps 761 mmHg 38%
    17:00 +20°C° 0 mm 2 mps 761 mmHg 37%
    18:00 +19°C° 0 mm 2 mps 761 mmHg 42%
    19:00 +18°C° 0 mm 1 mps 761 mmHg 48%
    20:00 +15°C° 0 mm 1 mps 762 mmHg 53%
    21:00 +15°C° 0 mm 2 mps 762 mmHg 56%
    22:00 +13°C° 0 mm 3 mps 763 mmHg 60%
    23:00 +12°C° 0 mm 4 mps 763 mmHg 63%

    Tomorrow, 24 March, Sunday

    Time Temperature Precipitation Wind Pressure Humidity
    00:00 +11°C° 0 mm 4 mps 763 mmHg 56%
    01:00 +10°C° 0 mm 4 mps 763 mmHg 49%
    02:00 +8°C° 0 mm 5 mps 764 mmHg 41%
    03:00 +7°C° 0 mm 4 mps 764 mmHg 42%
    04:00 +8°C° 0 mm 3 mps 764 mmHg 44%
    05:00 +7°C° 0 mm 2 mps 764 mmHg 45%
    06:00 +7°C° 0 mm 2 mps 764 mmHg 45%
    07:00 +9°C° 0 mm 1 mps 764 mmHg 46%
    08:00 +9°C° 0 mm 1 mps 764 mmHg 46%
    09:00 +11°C° 0 mm 1 mps 763 mmHg 43%
    10:00 +12°C° 0 mm 1 mps 763 mmHg 39%
    11:00 +14°C° 0 mm 1 mps 763 mmHg 36%
    12:00 +15°C° 0 mm 1 mps 762 mmHg 35%
    13:00 +16°C° 0 mm 1 mps 762 mmHg 35%
    14:00 +18°C° 0 mm 1 mps 761 mmHg 34%
    15:00 +19°C° 0 mm 1 mps 761 mmHg 34%
    16:00 +19°C° 0 mm 1 mps 760 mmHg 33%
    17:00 +19°C° 0 mm 1 mps 760 mmHg 33%
    18:00 +18°C° 0 mm 1 mps 760 mmHg 37%
    19:00 +15°C° 0 mm 2 mps 760 mmHg 41%
    20:00 +14°C° 0 mm 2 mps 760 mmHg 45%
    21:00 +13°C° 0 mm 2 mps 760 mmHg 46%
    22:00 +13°C° 0 mm 2 mps 760 mmHg 48%
    23:00 +12°C° 0 mm 2 mps 760 mmHg 49%

    Day after tomorrow, 25 March, Monday

    Time Temperature Precipitation Wind Pressure Humidity
    00:00 +12°C° 0 mm 1 mps 759 mmHg 50%
    01:00 +11°C° 0 mm 1 mps 759 mmHg 52%
    02:00 +10°C° 0 mm 0 mps 759 mmHg 53%
    03:00 +10°C° 0 mm 0 mps 758 mmHg 54%
    04:00 +9°C° 0 mm 0 mps 758 mmHg 56%
    05:00 +9°C° 0 mm 0 mps 758 mmHg 57%
    06:00 +10°C° 0 mm 0 mps 758 mmHg 56%
    07:00 +10°C° 0 mm 0 mps 757 mmHg 55%
    08:00 +11°C° 0 mm 0 mps 757 mmHg 54%
    09:00 +14°C° 0 mm 1 mps 757 mmHg 50%
    10:00 +16°C° 0 mm 1 mps 756 mmHg 46%
    11:00 +18°C° 0 mm 2 mps 756 mmHg 42%
    12:00 +19°C° 0 mm 3 mps 755 mmHg 37%
    13:00 +20°C° 0 mm 3 mps 754 mmHg 31%
    14:00 +22°C° 0 mm 4 mps 754 mmHg 25%
    15:00 +22°C° 0 mm 4 mps 753 mmHg 26%
    16:00 +22°C° 0 mm 4 mps 753 mmHg 28%
    17:00 +22°C° 0 mm 4 mps 752 mmHg 29%
    18:00 +20°C° 0 mm 4 mps 752 mmHg 35%
    19:00 +18°C° 0 mm 4 mps 752 mmHg 40%
    20:00 +15°C° 0 mm 4 mps 753 mmHg 46%
    21:00 +14°C° 0 mm 3 mps 753 mmHg 50%
    22:00 +13°C° 0 mm 3 mps 753 mmHg 54%
    23:00 +13°C° 0 mm 3 mps 753 mmHg 58%

    26 March, Tuesday

    Time Temperature Precipitation Wind Pressure Humidity
    00:00 +12°C° 0 mm 3 mps 753 mmHg 59%
    01:00 +12°C° 0 mm 3 mps 753 mmHg 61%
    02:00 +12°C° 0 mm 3 mps 753 mmHg 62%
    03:00 +11°C° 0 mm 4 mps 754 mmHg 62%
    04:00 +10°C° 0 mm 5 mps 754 mmHg 62%
    05:00 +9°C° 0 mm 7 mps 754 mmHg 62%
    06:00 +9°C° 0 mm 7 mps 755 mmHg 58%
    07:00 +9°C° 0 mm 7 mps 756 mmHg 55%
    08:00 +9°C° 0 mm 8 mps 756 mmHg 52%
    09:00 +10°C° 0 mm 8 mps 757 mmHg 49%
    10:00 +11°C° 0 mm 7 mps 757 mmHg 46%
    11:00 +12°C° 0 mm 7 mps 758 mmHg 43%
    12:00 +14°C° 0 mm 7 mps 758 mmHg 41%
    13:00 +14°C° 0 mm 6 mps 758 mmHg 39%
    14:00 +15°C° 0 mm 6 mps 758 mmHg 37%
    15:00 +15°C° 0 mm 5 mps 758 mmHg 38%
    16:00 +15°C° 0 mm 4 mps 759 mmHg 38%
    17:00 +14°C° 0 mm 3 mps 759 mmHg 39%
    18:00 +13°C° 0.1 mm 3 mps 759 mmHg 43%
    19:00 +12°C° 0.1 mm 3 mps 760 mmHg 48%
    20:00 +11°C° 0.1 mm 3 mps 761 mmHg 52%
    21:00 +10°C° 0.2 mm 3 mps 761 mmHg 58%
    22:00 +10°C° 0.2 mm 3 mps 761 mmHg 63%
    23:00 +9°C° 0.2 mm 3 mps 762 mmHg 68%

    27 March, Wednesday

    Time Temperature Precipitation Wind Pressure Humidity
    00:00 +9°C° 0.6 mm 3 mps 762 mmHg 72%
    01:00 +7°C° 0.6 mm 4 mps 762 mmHg 76%
    02:00 +7°C° 0.6 mm 4 mps 763 mmHg 79%
    03:00 +8°C° 0.6 mm 3 mps 763 mmHg 79%
    04:00 +8°C° 0.6 mm 3 mps 763 mmHg 78%
    05:00 +8°C° 0.6 mm 2 mps 763 mmHg 78%
    06:00 +7°C° 0.3 mm 3 mps 763 mmHg 75%
    07:00 +6°C° 0.3 mm 4 mps 764 mmHg 72%
    08:00 +6°C° 0.3 mm 5 mps 764 mmHg 68%
    09:00 +7°C° 0.1 mm 4 mps 764 mmHg 62%
    10:00 +7°C° 0.1 mm 4 mps 764 mmHg 55%
    11:00 +8°C° 0.1 mm 4 mps 764 mmHg 49%
    12:00 +9°C° 0 mm 3 mps 764 mmHg 47%
    13:00 +10°C° 0 mm 3 mps 763 mmHg 46%
    14:00 +12°C° 0 mm 2 mps 763 mmHg 44%
    15:00 +12°C° 0 mm 2 mps 763 mmHg 44%
    16:00 +12°C° 0 mm 1 mps 763 mmHg 43%
    17:00 +12°C° 0 mm 1 mps 762 mmHg 43%
    18:00 +12°C° 0 mm 1 mps 763 mmHg 47%
    19:00 +11°C° 0 mm 1 mps 763 mmHg 52%
    20:00 +10°C° 0 mm 1 mps 763 mmHg 56%
    21:00 +10°C° 0 mm 1 mps 764 mmHg 58%
    22:00 +9°C° 0 mm 1 mps 764 mmHg 61%
    23:00 +9°C° 0 mm 1 mps 764 mmHg 63%

    28 March, Thursday

    Time Temperature Precipitation Wind Pressure Humidity
    00:00 +9°C° 0 mm 1 mps 764 mmHg 64%
    01:00 +8°C° 0 mm 1 mps 764 mmHg 65%
    02:00 +7°C° 0 mm 0 mps 764 mmHg 66%
    03:00 +8°C° 0 mm 1 mps 765 mmHg 68%
    04:00 +7°C° 0 mm 1 mps 765 mmHg 70%
    05:00 +6°C° 0 mm 2 mps 765 mmHg 71%
    06:00 +5°C° 0 mm 3 mps 765 mmHg 69%
    07:00 +7°C° 0 mm 3 mps 766 mmHg 66%
    08:00 +6°C° 0 mm 4 mps 766 mmHg 64%
    09:00 +7°C° 0.1 mm 4 mps 766 mmHg 59%
    10:00 +7°C° 0.1 mm 5 mps 766 mmHg 55%
    11:00 +8°C° 0.1 mm 5 mps 767 mmHg 51%
    12:00 +10°C° 0 mm 4 mps 766 mmHg 47%
    13:00 +11°C° 0 mm 4 mps 766 mmHg 44%
    14:00 +12°C° 0 mm 4 mps 766 mmHg 41%
    15:00 +12°C° 0 mm 4 mps 766 mmHg 40%
    16:00 +12°C° 0 mm 4 mps 766 mmHg 40%
    17:00 +12°C° 0 mm 4 mps 766 mmHg 39%
    18:00 +10°C° 0 mm 4 mps 766 mmHg 42%
    19:00 +9°C° 0 mm 3 mps 767 mmHg 46%
    20:00 +8°C° 0 mm 3 mps 767 mmHg 49%
    21:00 +7°C° 0 mm 3 mps 768 mmHg 50%
    22:00 +5°C° 0 mm 3 mps 768 mmHg 51%
    23:00 +5°C° 0 mm 3 mps 769 mmHg 52%
    Show more